Kuiper-00100

operational
NORAD ID: 65139 Int'l Des: 2025-171 Owner: KUIP Country: US Constellation: kuiper
LEOCIRCULAR

Kuiper-00100について

説明を読み込み中...

リアルタイム位置

3D地球を読み込み中...

次回通過

高度履歴

Altitude vs Time

uPlot chart will show altitude changes over time

軌道要素

1 65139U 25171H 25352.33335648 .00023069 00000-0 27509-2 0 9997
2 65139 51.8992 150.3764 0000983 46.8653 25.7036 14.84171447 4635
Epoch: Dec 18, 2025 • Age: 7 hours

現在のステータス

高度 634.6 km
速度 7.54 km/s
衛星直下点 -52.04°S, 100.07°E
打ち上げ日 Aug 11, 2025
運用期間 0.3 years
タイプ internet

技術仕様

分類 Payload
質量 490.00 kg
乾燥質量 490.00 kg
総質量 490.00 kg
長さ 1.80 m
直径 0.70 m
スパン 5.00 m
形状 Box + 2 pan
製造者 KUIP
バスタイプ Kuiper
フェーズステータス In Orbit
所有者/国 KUIP/US

大規模コンステレーション

Loading constellations...